Time,TemperatureF,DewpointF,PressureIn,WindDirection,WindDirectionDegrees,WindSpeedMPH,WindSpeedGustMPH,Humidity,HourlyPrecipIn,Conditions,Clouds,dailyrainin,SoftwareType,DateUTC
2013-05-04 00:10:00,31.1,31.0,29.93,WNW,297,0.0,1.0,98,0.00,,,0.00,weatherlink.com 1.10,2013-05-04 05:10:00,
2013-05-04 00:25:00,31.1,31.0,29.92,WSW,257,1.0,1.0,98,0.00,,,0.00,weatherlink.com 1.10,2013-05-04 05:25:00,
2013-05-04 00:40:00,31.1,31.0,29.92,SW,231,1.0,1.0,98,0.00,,,0.00,weatherlink.com 1.10,2013-05-04 05:40:00,
2013-05-04 00:55:00,31.2,31.0,29.92,SW,236,0.0,1.0,98,0.00,,,0.00,weatherlink.com 1.10,2013-05-04 05:55:00,
2013-05-04 01:10:00,31.2,31.0,29.91,West,281,0.0,1.0,98,0.00,,,0.00,weatherlink.com 1.10,2013-05-04 06:10:00,
2013-05-04 01:25:00,31.2,31.0,29.90,SSW,210,0.0,1.0,98,0.00,,,0.00,weatherlink.com 1.10,2013-05-04 06:25:00,
2013-05-04 01:41:00,31.2,31.0,29.90,West,269,0.0,1.0,98,0.00,,,0.00,weatherlink.com 1.10,2013-05-04 06:41:00,
2013-05-04 01:56:00,31.1,31.0,29.90,WSW,238,1.0,1.0,98,0.00,,,0.00,weatherlink.com 1.10,2013-05-04 06:56:00,
2013-05-04 02:11:00,31.2,31.0,29.89,WSW,253,0.0,2.0,98,0.00,,,0.00,weatherlink.com 1.10,2013-05-04 07:11:00,
2013-05-04 02:26:00,31.1,31.0,29.89,WSW,252,0.0,2.0,98,0.00,,,0.00,weatherlink.com 1.10,2013-05-04 07:26:00,
2013-05-04 02:41:00,31.1,31.0,29.88,SSW,204,0.0,2.0,98,0.00,,,0.00,weatherlink.com 1.10,2013-05-04 07:41:00,
2013-05-04 02:56:00,-999.0,-99.9,29.88,North,-999,-999.0,-999.0,-999,0.00,,,0.00,weatherlink.com 1.10,2013-05-04 07:56:00,
2013-05-04 03:11:00,-999.0,-99.9,29.88,North,-999,-999.0,-999.0,-999,0.00,,,0.00,weatherlink.com 1.10,2013-05-04 08:11:00,
2013-05-04 03:26:00,-999.0,-99.9,29.88,North,-999,-999.0,-999.0,-999,0.00,,,0.00,weatherlink.com 1.10,2013-05-04 08:26:00,
2013-05-04 03:41:00,-999.0,-99.9,29.88,North,-999,-999.0,-999.0,-999,0.00,,,0.00,weatherlink.com 1.10,2013-05-04 08:41:00,
2013-05-04 03:56:00,-999.0,-99.9,29.87,North,-999,-999.0,-999.0,-999,0.00,,,0.00,weatherlink.com 1.10,2013-05-04 08:56:00,
2013-05-04 04:11:00,-999.0,-99.9,29.88,North,-999,-999.0,-999.0,-999,0.00,,,0.00,weatherlink.com 1.10,2013-05-04 09:11:00,
2013-05-04 04:26:00,-999.0,-99.9,29.87,North,-999,-999.0,-999.0,-999,0.00,,,0.00,weatherlink.com 1.10,2013-05-04 09:26:00,
2013-05-04 04:41:00,-999.0,-99.9,29.87,North,-999,-999.0,-999.0,-999,0.00,,,0.00,weatherlink.com 1.10,2013-05-04 09:41:00,
2013-05-04 04:56:00,-999.0,-99.9,29.87,North,-999,-999.0,-999.0,-999,0.00,,,0.00,weatherlink.com 1.10,2013-05-04 09:56:00,
2013-05-04 05:11:00,-999.0,-99.9,29.87,North,-999,-999.0,-999.0,-999,0.00,,,0.00,weatherlink.com 1.10,2013-05-04 10:11:00,
2013-05-04 05:26:00,-999.0,-99.9,29.86,North,-999,-999.0,-999.0,-999,0.00,,,0.00,weatherlink.com 1.10,2013-05-04 10:26:00,
2013-05-04 05:41:00,-999.0,-99.9,29.86,North,-999,-999.0,-999.0,-999,0.00,,,0.00,weatherlink.com 1.10,2013-05-04 10:41:00,
2013-05-04 05:57:00,-999.0,-99.9,29.86,North,-999,-999.0,-999.0,-999,0.00,,,0.00,weatherlink.com 1.10,2013-05-04 10:57:00,
2013-05-04 06:12:00,-999.0,-99.9,29.87,North,-999,-999.0,-999.0,-999,0.00,,,0.00,weatherlink.com 1.10,2013-05-04 11:12:00,
2013-05-04 06:27:00,-999.0,-99.9,29.87,North,-999,-999.0,-999.0,-999,0.00,,,0.00,weatherlink.com 1.10,2013-05-04 11:27:00,
2013-05-04 06:42:00,31.2,31.0,29.87,WSW,253,0.0,0.0,99,0.00,,,0.00,weatherlink.com 1.10,2013-05-04 11:42:00,
2013-05-04 06:57:00,31.3,31.0,29.88,SW,217,0.0,0.0,99,0.00,,,0.00,weatherlink.com 1.10,2013-05-04 11:57:00,
2013-05-04 07:12:00,31.3,31.0,29.88,SW,228,0.0,0.0,99,0.00,,,0.00,weatherlink.com 1.10,2013-05-04 12:12:00,
2013-05-04 07:27:00,31.4,31.0,29.88,SW,233,0.0,1.0,99,0.00,,,0.00,weatherlink.com 1.10,2013-05-04 12:27:00,
2013-05-04 07:42:00,31.7,32.0,29.88,SW,233,0.0,0.0,99,0.00,,,0.00,weatherlink.com 1.10,2013-05-04 12:42:00,
2013-05-04 07:57:00,31.9,32.0,29.88,SW,233,0.0,1.0,99,0.00,,,0.00,weatherlink.com 1.10,2013-05-04 12:57:00,
2013-05-04 08:12:00,32.1,32.0,29.89,SW,233,0.0,0.0,99,0.00,,,0.00,weatherlink.com 1.10,2013-05-04 13:12:00,
2013-05-04 08:27:00,31.9,32.0,29.89,WSW,239,0.0,0.0,99,0.00,,,0.00,weatherlink.com 1.10,2013-05-04 13:27:00,
2013-05-04 08:42:00,32.1,32.0,29.89,WSW,239,0.0,0.0,99,0.00,,,0.00,weatherlink.com 1.10,2013-05-04 13:42:00,
2013-05-04 08:57:00,32.5,32.0,29.89,WSW,239,0.0,0.0,99,0.00,,,0.00,weatherlink.com 1.10,2013-05-04 13:57:00,
2013-05-04 09:12:00,33.2,33.0,29.90,WSW,239,0.0,0.0,99,0.00,,,0.00,weatherlink.com 1.10,2013-05-04 14:12:00,
2013-05-04 09:27:00,33.8,34.0,29.90,WSW,238,1.0,1.0,99,0.00,,,0.00,weatherlink.com 1.10,2013-05-04 14:27:00,
2013-05-04 09:42:00,33.9,34.0,29.90,East,89,1.0,2.0,99,0.01,,,0.01,weatherlink.com 1.10,2013-05-04 14:42:00,
2013-05-04 09:57:00,35.1,35.0,29.90,ENE,72,1.0,1.0,99,0.03,,,0.03,weatherlink.com 1.10,2013-05-04 14:57:00,
2013-05-04 10:12:00,35.4,35.0,29.89,ESE,115,0.0,2.0,98,0.07,,,0.07,weatherlink.com 1.10,2013-05-04 15:12:00,
2013-05-04 10:27:00,36.3,36.0,29.90,ESE,102,0.0,2.0,98,0.10,,,0.10,weatherlink.com 1.10,2013-05-04 15:27:00,
2013-05-04 10:42:00,36.9,36.0,29.90,SSW,203,0.0,2.0,98,0.11,,,0.12,weatherlink.com 1.10,2013-05-04 15:42:00,
2013-05-04 10:57:00,36.7,36.0,29.90,SSW,211,1.0,2.0,97,0.12,,,0.15,weatherlink.com 1.10,2013-05-04 15:57:00,
2013-05-04 11:12:00,37.2,37.0,29.91,SW,218,0.0,1.0,97,0.09,,,0.16,weatherlink.com 1.10,2013-05-04 16:12:00,
2013-05-04 11:27:00,37.9,37.0,29.91,SW,222,0.0,1.0,97,0.08,,,0.18,weatherlink.com 1.10,2013-05-04 16:27:00,
2013-05-04 11:42:00,38.3,37.0,29.91,NNW,338,0.0,2.0,95,0.06,,,0.19,weatherlink.com 1.10,2013-05-04 16:42:00,
2013-05-04 11:57:00,39.2,38.0,29.91,East,79,0.0,2.0,94,0.05,,,0.20,weatherlink.com 1.10,2013-05-04 16:57:00,
2013-05-04 12:12:00,40.3,39.0,29.91,ENE,62,1.0,2.0,95,0.08,,,0.24,weatherlink.com 1.10,2013-05-04 17:12:00,
2013-05-04 12:27:00,41.4,39.0,29.91,North,6,1.0,2.0,91,0.08,,,0.26,weatherlink.com 1.10,2013-05-04 17:27:00,
2013-05-04 12:42:00,42.5,38.0,29.91,North,349,1.0,3.0,85,0.08,,,0.27,weatherlink.com 1.10,2013-05-04 17:42:00,
2013-05-04 12:57:00,41.5,37.0,29.91,NE,47,3.0,4.0,85,0.07,,,0.28,weatherlink.com 1.10,2013-05-04 17:57:00,
2013-05-04 13:12:00,40.9,38.0,29.91,NE,52,3.0,3.0,90,0.05,,,0.29,weatherlink.com 1.10,2013-05-04 18:12:00,
2013-05-04 13:27:00,41.2,39.0,29.91,East,95,1.0,3.0,92,0.04,,,0.30,weatherlink.com 1.10,2013-05-04 18:27:00,
2013-05-04 13:42:00,42.7,39.0,29.92,NNW,331,1.0,2.0,88,0.04,,,0.31,weatherlink.com 1.10,2013-05-04 18:42:00,
2013-05-04 13:57:00,42.4,38.0,29.92,ENE,68,1.0,3.0,85,0.03,,,0.31,weatherlink.com 1.10,2013-05-04 18:57:00,
2013-05-04 14:12:00,43.2,38.0,29.92,WNW,283,1.0,3.0,81,0.02,,,0.31,weatherlink.com 1.10,2013-05-04 19:12:00,
2013-05-04 14:28:00,42.4,37.0,29.93,NE,51,4.0,4.0,82,0.01,,,0.31,weatherlink.com 1.10,2013-05-04 19:28:00,
2013-05-04 14:43:00,39.9,37.0,29.94,NE,55,3.0,5.0,90,0.00,,,0.31,weatherlink.com 1.10,2013-05-04 19:43:00,
2013-05-04 14:58:00,39.0,37.0,29.94,NE,53,0.0,2.0,91,0.02,,,0.33,weatherlink.com 1.10,2013-05-04 19:58:00,
2013-05-04 15:13:00,39.4,37.0,29.94,West,266,0.0,3.0,92,0.03,,,0.34,weatherlink.com 1.10,2013-05-04 20:13:00,
2013-05-04 15:28:00,39.5,37.0,29.94,WNW,302,1.0,3.0,92,0.03,,,0.34,weatherlink.com 1.10,2013-05-04 20:28:00,
2013-05-04 15:43:00,40.9,39.0,29.94,NE,37,0.0,2.0,93,0.03,,,0.34,weatherlink.com 1.10,2013-05-04 20:43:00,
2013-05-04 15:58:00,41.5,39.0,29.95,NE,42,1.0,3.0,91,0.01,,,0.34,weatherlink.com 1.10,2013-05-04 20:58:00,
2013-05-04 16:13:00,41.9,40.0,29.95,North,4,0.0,2.0,91,0.00,,,0.34,weatherlink.com 1.10,2013-05-04 21:13:00,
2013-05-04 16:28:00,41.9,39.0,29.95,NE,53,4.0,6.0,88,0.00,,,0.34,weatherlink.com 1.10,2013-05-04 21:28:00,
2013-05-04 16:43:00,39.4,37.0,29.95,WNW,297,1.0,3.0,91,0.02,,,0.36,weatherlink.com 1.10,2013-05-04 21:43:00,
2013-05-04 16:58:00,40.7,39.0,29.95,NE,53,0.0,0.0,93,0.03,,,0.37,weatherlink.com 1.10,2013-05-04 21:58:00,
2013-05-04 17:13:00,42.2,40.0,29.95,NW,326,0.0,2.0,91,0.03,,,0.37,weatherlink.com 1.10,2013-05-04 22:13:00,
2013-05-04 17:28:00,42.8,39.0,29.95,NNE,30,0.0,2.0,87,0.03,,,0.37,weatherlink.com 1.10,2013-05-04 22:28:00,
2013-05-04 17:43:00,43.5,40.0,29.95,NNE,22,1.0,2.0,87,0.01,,,0.37,weatherlink.com 1.10,2013-05-04 22:43:00,
2013-05-04 17:58:00,43.6,39.0,29.96,NE,42,1.0,3.0,83,0.00,,,0.37,weatherlink.com 1.10,2013-05-04 22:58:00,
2013-05-04 18:13:00,43.8,38.0,29.96,ENE,72,1.0,3.0,81,0.00,,,0.37,weatherlink.com 1.10,2013-05-04 23:13:00,
2013-05-04 18:28:00,43.6,38.0,29.97,NNE,29,1.0,2.0,79,0.00,,,0.37,weatherlink.com 1.10,2013-05-04 23:28:00,
2013-05-04 18:43:00,43.2,37.0,29.96,NE,37,1.0,3.0,79,0.00,,,0.37,weatherlink.com 1.10,2013-05-04 23:43:00,
2013-05-04 18:58:00,42.9,37.0,29.96,NE,41,1.0,3.0,81,0.00,,,0.37,weatherlink.com 1.10,2013-05-04 23:58:00,
2013-05-04 19:13:00,42.7,38.0,29.97,NE,51,1.0,3.0,82,0.00,,,0.37,weatherlink.com 1.10,2013-05-05 00:13:00,
2013-05-04 19:28:00,42.3,38.0,29.97,North,8,0.0,1.0,84,0.00,,,0.37,weatherlink.com 1.10,2013-05-05 00:28:00,
2013-05-04 19:43:00,41.5,37.0,29.98,North,5,0.0,1.0,84,0.00,,,0.37,weatherlink.com 1.10,2013-05-05 00:43:00,
2013-05-04 19:58:00,41.2,37.0,29.98,West,281,0.0,1.0,85,0.00,,,0.37,weatherlink.com 1.10,2013-05-05 00:58:00,
2013-05-04 20:13:00,40.7,37.0,29.98,ENE,65,0.0,1.0,87,0.00,,,0.37,weatherlink.com 1.10,2013-05-05 01:13:00,
2013-05-04 20:28:00,40.3,37.0,29.99,ENE,65,0.0,1.0,89,0.00,,,0.37,weatherlink.com 1.10,2013-05-05 01:28:00,
2013-05-04 20:43:00,40.2,37.0,29.99,ENE,65,0.0,1.0,89,0.00,,,0.37,weatherlink.com 1.10,2013-05-05 01:43:00,
2013-05-04 20:58:00,40.1,37.0,30.00,ENE,60,0.0,1.0,89,0.00,,,0.37,weatherlink.com 1.10,2013-05-05 01:58:00,
2013-05-04 21:13:00,40.0,37.0,30.00,NE,53,0.0,1.0,89,0.00,,,0.37,weatherlink.com 1.10,2013-05-05 02:13:00,
2013-05-04 21:28:00,40.0,37.0,30.00,NE,54,0.0,2.0,89,0.00,,,0.37,weatherlink.com 1.10,2013-05-05 02:28:00,
2013-05-04 21:43:00,39.8,37.0,30.01,NE,49,0.0,1.0,89,0.00,,,0.37,weatherlink.com 1.10,2013-05-05 02:43:00,
2013-05-04 21:58:00,39.6,37.0,30.02,NNE,27,0.0,2.0,89,0.00,,,0.37,weatherlink.com 1.10,2013-05-05 02:58:00,
2013-05-04 22:13:00,39.6,37.0,30.02,NNE,27,0.0,1.0,90,0.00,,,0.37,weatherlink.com 1.10,2013-05-05 03:13:00,
2013-05-04 22:28:00,39.8,37.0,30.02,NNE,27,0.0,1.0,90,0.00,,,0.37,weatherlink.com 1.10,2013-05-05 03:28:00,
2013-05-04 22:43:00,39.9,37.0,30.02,NNE,30,0.0,1.0,90,0.00,,,0.37,weatherlink.com 1.10,2013-05-05 03:43:00,
2013-05-04 22:58:00,39.6,37.0,30.02,NNE,30,0.0,0.0,91,0.00,,,0.37,weatherlink.com 1.10,2013-05-05 03:58:00,
2013-05-04 23:13:00,39.5,37.0,30.02,NNE,30,0.0,0.0,92,0.00,,,0.37,weatherlink.com 1.10,2013-05-05 04:13:00,
2013-05-04 23:28:00,39.4,37.0,30.02,NNE,30,0.0,1.0,92,0.00,,,0.37,weatherlink.com 1.10,2013-05-05 04:28:00,
2013-05-04 23:43:00,39.4,37.0,30.02,NNE,30,0.0,1.0,92,0.00,,,0.37,weatherlink.com 1.10,2013-05-05 04:43:00,
2013-05-04 23:58:00,39.5,38.0,30.02,NNE,27,0.0,1.0,93,0.00,,,0.37,weatherlink.com 1.10,2013-05-05 04:58:00,